Wind_Speed
4 3 3 3 4 6 7 8 9 9 9 9 9 8 7 7 7 7 7 7 6 6 7 7 7 7 7 7 6 6 6 7 8 8 8 9 9 9 9 9 9 9 9
2 2 2 2 3 4 5 7 8 8 9 8 8 8 7 6 7 7 7 7 6 6 6 6 6 6 6 6 6 5 6 6 7 7 7 8 8 8 8 9 9 9 9
1 1 1 2 2 3 4 5 6 7 8 8 8 7 7 6 6 6 6 6 6 6 6 6 6 6 6 6 6 5 5 5 6 6 6 7 7 7 8 8 8 9 9
1 2 2 2 2 3 4 4 5 6 6 6 6 6 6 6 6 6 6 6 7 7 6 6 6 6 6 6 5 4 4 4 5 5 5 6 6 6 7 7 7 8 8
2 3 3 3 2 3 4 4 4 4 5 5 5 6 6 6 6 6 6 7 7 7 6 6 6 6 6 5 4 4 3 3 4 4 5 5 5 5 6 6 6 7 7
2 3 4 3 3 3 3 3 3 4 4 5 5 5 5 5 5 6 6 6 7 6 6 5 5 5 5 5 4 4 3 3 4 4 4 4 5 5 5 5 5 5 6
3 4 4 4 4 3 3 3 3 3 3 3 3 3 4 4 5 5 5 6 6 6 6 5 5 5 5 4 4 4 3 3 3 3 3 4 4 3 3 4 4 4 5
3 4 5 5 5 5 4 4 3 3 3 2 2 2 3 3 4 5 5 5 5 5 5 4 5 5 4 4 4 3 3 2 2 2 3 3 2 2 2 3 3 3 4
3 4 5 6 5 5 5 5 4 4 3 2 2 1 2 2 3 4 5 5 5 4 4 4 4 4 4 4 3 3 2 2 2 2 2 2 2 1 1 1 1 2 2
3 4 5 6 6 6 6 6 6 5 4 4 3 1 0 1 2 3 4 4 4 4 4 5 4 4 4 3 3 2 2 2 1 1 1 1 1 1 0 0 1 1 1
3 3 4 5 6 7 7 7 7 7 6 5 4 3 2 1 1 2 3 3 3 3 4 5 4 4 3 3 2 2 2 2 2 1 0 0 0 0 0 1 1 2 2
4 4 4 5 6 7 8 8 8 8 7 7 6 5 4 2 2 1 1 2 3 3 4 4 4 3 3 2 2 1 1 1 1 0 0 0 1 1 1 1 2 2 3
5 5 5 5 7 8 8 9 8 9 9 8 8 7 6 4 3 3 2 2 2 2 3 3 3 3 3 2 2 1 1 1 0 0 0 0 1 1 1 2 2 2 3
7 7 7 7 7 8 9 9 9 9 10 10 10 9 8 7 6 5 4 3 2 2 2 3 3 3 2 2 1 1 0 0 0 0 1 0 0 1 1 2 2 2 2
9 8 9 8 7 9 10 10 10 10 11 11 12 11 10 9 8 7 6 5 4 3 2 2 2 2 2 1 1 1 0 0 0 1 0 0 1 1 1 2 2 2 2
9 8 8 9 9 9 10 11 11 11 11 12 12 12 11 11 9 9 8 7 6 5 3 2 2 1 1 1 1 1 1 1 0 0 1 1 1 1 1 2 2 2 2
11 10 9 10 9 10 11 12 12 13 13 13 13 12 12 12 11 10 10 9 8 6 5 3 2 2 2 1 1 1 1 1 1 1 1 1 1 1 1 2 2 2 2
12 11 10 10 10 11 12 13 13 13 12 12 13 14 13 13 12 11 12 11 10 8 6 5 4 4 3 2 2 2 2 1 1 1 1 1 1 1 1 1 2 2 2
12 12 12 11 11 12 13 13 14 14 14 13 14 15 14 14 13 13 13 12 11 9 8 7 5 5 4 4 3 3 3 3 2 1 1 1 1 1 1 1 1 2 2
14 14 13 13 12 13 13 13 14 14 15 14 15 16 16 14 13 12 13 13 12 11 9 8 7 6 6 5 4 3 3 3 3 2 2 2 2 2 2 2 2 2 2
16 16 13 13 13 13 15 15 16 16 16 16 16 16 17 16 14 12 13 13 14 12 11 10 9 8 7 6 5 4 4 4 4 4 3 3 3 2 2 2 2 3 3
16 17 15 14 15 14 14 15 15 17 18 17 16 16 16 15 15 13 13 14 15 14 12 11 10 9 8 7 6 6 5 5 5 5 5 4 3 3 3 3 3 3 3
17 17 16 14 14 14 14 14 13 14 16 16 17 16 17 17 17 16 15 15 16 15 14 13 12 11 10 9 8 7 7 6 5 5 5 5 4 4 4 3 3 3 4
16 16 14 12 13 13 13 13 13 14 16 17 17 18 18 18 17 17 17 17 17 16 15 14 13 13 12 11 10 9 8 8 7 7 6 6 5 5 5 5 4 4 4
17 14 12 10 11 12 12 13 14 15 16 17 18 18 19 19 19 18 19 18 18 17 16 16 15 14 14 13 12 11 10 9 9 8 8 7 7 7 6 6 6 6 6
15 12 10 9 9 11 12 12 13 14 16 17 18 19 19 21 21 20 19 19 19 18 17 17 17 16 16 15 14 13 12 11 10 10 10 9 9 9 8 8 8 8 9
Wind_Direction
101 98 96 108 114 113 107 103 99 93 86 80 75 72 70 65 61 59 58 59 57 58 62 63 63 66 69 69 71 76 80 82 83 84 83 83 83 85 89 91 95 98 100
116 115 113 113 116 118 112 106 101 95 89 84 78 72 67 63 59 57 57 56 51 50 54 56 58 61 64 67 70 75 80 85 85 84 83 83 83 86 90 94 97 97 100
137 175 183 154 137 128 118 111 104 98 93 88 81 73 65 62 58 57 55 52 46 44 47 50 51 54 57 59 64 70 77 82 82 84 84 84 86 88 93 96 97 98 99
188 214 208 180 165 148 132 119 109 103 98 91 83 73 65 60 57 55 49 43 39 41 45 47 45 46 47 51 57 63 72 77 78 83 85 88 91 91 93 96 98 99 101
203 216 212 189 179 164 150 134 119 110 102 93 84 74 63 55 51 48 43 38 36 38 41 41 38 39 42 47 51 57 65 73 77 85 87 92 95 94 93 96 99 103 104
215 221 222 208 196 184 166 146 132 122 111 98 87 73 60 52 43 38 37 34 33 35 37 34 33 36 38 41 46 51 62 72 76 82 86 92 94 92 92 95 100 106 110
234 227 225 221 213 202 193 174 154 139 125 111 92 69 53 45 40 34 33 29 28 29 32 30 28 31 33 35 44 49 63 72 76 80 81 85 91 91 94 97 101 104 110
253 230 224 222 216 206 201 196 186 174 158 142 111 73 52 40 36 31 27 24 23 21 24 26 21 22 25 32 45 51 55 63 65 66 68 74 84 89 92 97 108 112 110
256 231 223 222 217 212 208 207 206 199 190 179 155 102 51 39 29 26 23 19 17 16 15 16 14 15 16 23 36 47 50 56 56 54 61 69 75 81 88 114 129 136 136
263 235 231 229 219 216 214 216 216 214 211 209 205 205 165 23 20 18 16 14 13 13 9 7 10 8 10 15 28 40 49 56 58 70 70 77 81 82 70 188 196 189 178
291 259 244 233 228 224 218 219 223 224 224 221 219 223 234 285 348 1 7 7 7 9 7 0 2 4 10 12 20 37 56 54 64 86 83 136 139 168 270 244 237 229 216
306 286 261 242 234 230 225 222 226 227 228 226 224 229 237 252 275 303 329 340 356 7 3 355 350 1 9 13 14 45 59 41 65 63 145 176 201 228 253 242 242 241 236
303 284 271 256 240 233 229 228 229 226 228 230 226 232 240 244 251 256 268 293 321 346 360 360 351 354 3 12 20 24 38 43 84 38 232 232 208 217 245 245 242 246 240
307 282 271 267 245 238 236 231 229 227 229 230 230 235 238 240 246 251 251 260 274 307 335 343 340 343 343 352 352 346 359 37 245 297 282 225 204 209 238 245 246 245 240
302 281 268 261 247 242 236 231 231 231 233 231 232 236 239 241 245 247 242 246 256 269 283 316 325 321 308 314 310 287 358 354 247 213 241 257 250 237 239 248 254 252 247
301 282 268 262 254 244 232 232 235 237 237 235 236 239 237 237 241 242 238 242 249 253 255 273 280 278 259 271 270 255 304 324 309 232 278 269 258 243 246 257 263 260 259
301 285 271 258 251 243 238 236 237 238 239 235 236 237 236 237 238 237 238 241 244 242 242 247 244 227 218 214 213 242 274 299 285 280 293 272 273 261 253 261 267 274 271
298 287 270 262 255 249 243 240 239 236 234 231 231 231 233 237 239 239 235 237 239 236 235 236 228 220 219 218 222 237 249 262 270 285 313 304 276 257 263 275 274 275 275
300 289 275 264 257 253 246 241 238 235 233 232 230 229 229 233 236 234 232 230 230 230 230 228 221 217 219 220 221 229 234 236 241 243 273 282 253 246 258 272 277 276 273
296 293 280 259 253 250 250 244 240 238 233 233 232 229 227 230 232 233 229 226 224 223 225 224 221 217 218 220 225 229 231 233 232 232 245 253 247 244 252 265 261 262 264
296 296 281 254 248 249 248 244 241 241 235 232 230 228 226 227 230 232 224 224 221 220 221 222 222 219 219 222 226 228 230 230 233 238 243 249 249 253 258 261 258 262 266
299 295 284 263 254 251 251 242 244 243 237 227 227 227 225 227 226 228 220 223 220 220 221 222 222 220 217 218 222 224 230 235 240 244 246 246 246 247 252 259 267 264 271
300 291 285 272 258 252 251 248 246 241 232 226 227 227 225 226 224 222 218 220 219 221 223 224 224 223 220 219 220 224 232 238 241 243 242 243 241 240 239 249 263 265 271
298 289 279 270 259 253 246 243 240 239 234 228 223 223 221 222 222 219 218 221 222 223 225 224 226 226 223 222 225 228 233 240 244 242 238 238 239 240 242 250 260 267 269
300 287 276 274 261 249 239 238 240 235 229 223 222 222 223 224 223 220 222 224 223 224 226 226 227 227 225 226 230 234 237 242 244 243 242 245 248 248 251 256 262 267 273
301 290 277 270 258 242 234 236 240 234 226 223 222 222 226 226 224 222 222 225 225 225 227 228 229 228 229 231 234 238 241 242 246 248 247 249 250 252 257 262 264 269 275
Height
5876 5877 5878 5879 5879 5879 5880 5880 5881 5882 5883 5884 5885 5885 5886 5887 5887 5888 5888 5889 5889 5889 5889 5889 5889 5889 5889 5889 5889 5889 5890 5890 5890 5890 5890 5890 5890 5890 5890 5891 5891 5891 5892
5877 5877 5878 5879 5879 5880 5880 5881 5882 5882 5883 5884 5885 5886 5887 5888 5888 5889 5889 5890 5890 5890 5890 5890 5890 5890 5890 5890 5890 5890 5890 5891 5891 5891 5891 5891 5891 5892 5892 5892 5892 5893 5893
5877 5878 5878 5879 5879 5880 5880 5881 5882 5883 5884 5885 5886 5887 5888 5889 5889 5890 5890 5890 5891 5891 5890 5890 5891 5891 5891 5891 5891 5891 5891 5891 5891 5892 5892 5892 5893 5893 5893 5894 5894 5894 5894
5876 5877 5878 5879 5879 5880 5880 5881 5882 5883 5884 5885 5886 5887 5888 5889 5890 5890 5891 5891 5891 5891 5891 5891 5891 5891 5891 5891 5891 5892 5892 5892 5892 5893 5893 5893 5894 5894 5894 5895 5895 5895 5895
5876 5877 5878 5878 5879 5880 5880 5881 5882 5883 5884 5885 5887 5888 5889 5889 5890 5891 5891 5891 5892 5892 5892 5892 5892 5892 5892 5892 5892 5892 5892 5893 5893 5893 5894 5894 5894 5895 5895 5895 5896 5896 5896
5876 5877 5877 5878 5879 5879 5880 5881 5882 5883 5884 5886 5887 5888 5889 5890 5890 5891 5891 5892 5892 5892 5892 5892 5892 5892 5892 5892 5892 5893 5893 5893 5894 5894 5894 5895 5895 5895 5895 5896 5896 5896 5897
5876 5876 5877 5877 5878 5879 5880 5881 5882 5883 5884 5885 5887 5888 5889 5889 5890 5891 5892 5892 5892 5893 5892 5892 5893 5892 5893 5893 5893 5893 5893 5894 5894 5894 5895 5895 5895 5896 5896 5896 5897 5897 5897
5875 5875 5876 5876 5877 5878 5879 5881 5882 5883 5884 5885 5886 5887 5888 5889 5890 5891 5892 5892 5892 5893 5893 5893 5893 5893 5893 5893 5893 5893 5894 5894 5894 5895 5895 5895 5896 5896 5896 5897 5897 5897 5898
5874 5874 5875 5876 5876 5877 5879 5880 5881 5882 5884 5885 5886 5887 5888 5889 5890 5891 5892 5892 5892 5893 5893 5893 5893 5893 5893 5893 5893 5893 5894 5894 5895 5895 5895 5895 5896 5896 5896 5897 5897 5897 5898
5874 5874 5874 5875 5875 5876 5878 5879 5880 5882 5883 5884 5886 5887 5888 5889 5890 5891 5892 5892 5892 5892 5893 5893 5893 5893 5893 5893 5893 5894 5894 5894 5894 5895 5895 5895 5896 5896 5896 5897 5897 5898 5898
5874 5873 5874 5874 5874 5875 5876 5878 5879 5880 5882 5883 5885 5886 5887 5888 5889 5891 5891 5892 5892 5892 5893 5893 5893 5893 5893 5893 5893 5894 5894 5894 5894 5895 5895 5895 5896 5896 5896 5897 5897 5898 5898
5873 5873 5873 5873 5873 5874 5875 5876 5877 5879 5881 5882 5884 5885 5886 5888 5889 5890 5891 5891 5892 5892 5892 5893 5893 5893 5893 5893 5893 5894 5894 5894 5894 5895 5895 5895 5895 5896 5896 5897 5897 5897 5898
5872 5872 5872 5872 5872 5873 5874 5875 5876 5877 5879 5881 5882 5884 5885 5887 5888 5889 5890 5891 5892 5892 5892 5892 5893 5893 5893 5893 5893 5894 5894 5894 5895 5895 5895 5895 5895 5896 5896 5896 5897 5897 5897
5871 5870 5870 5870 5870 5871 5872 5873 5874 5876 5878 5879 5881 5882 5884 5885 5887 5888 5889 5890 5891 5892 5892 5892 5893 5893 5893 5893 5894 5894 5894 5894 5894 5895 5895 5895 5895 5895 5896 5896 5896 5897 5897
5869 5868 5868 5867 5868 5869 5870 5871 5872 5874 5876 5877 5879 5881 5882 5884 5885 5887 5888 5889 5890 5891 5892 5892 5892 5893 5893 5893 5893 5894 5894 5894 5894 5895 5895 5895 5895 5895 5896 5896 5896 5896 5896
5867 5866 5865 5866 5866 5867 5868 5869 5870 5872 5873 5875 5877 5878 5880 5881 5883 5885 5886 5888 5889 5890 5891 5891 5892 5892 5893 5893 5893 5893 5894 5894 5894 5894 5895 5895 5895 5895 5895 5896 5896 5896 5896
5864 5863 5863 5863 5864 5865 5865 5866 5868 5869 5871 5872 5874 5876 5877 5879 5881 5883 5884 5886 5887 5889 5889 5890 5891 5891 5892 5892 5893 5893 5893 5894 5894 5894 5894 5895 5895 5895 5895 5895 5895 5895 5895
5861 5860 5861 5861 5862 5862 5863 5864 5865 5867 5868 5869 5871 5873 5875 5877 5878 5880 5882 5884 5886 5887 5888 5889 5890 5891 5891 5892 5892 5893 5893 5893 5894 5894 5894 5895 5895 5895 5895 5895 5895 5895 5895
5858 5857 5858 5858 5858 5859 5859 5860 5862 5863 5865 5866 5868 5870 5872 5874 5876 5878 5880 5882 5884 5885 5887 5888 5889 5890 5891 5892 5892 5893 5893 5893 5893 5894 5894 5894 5894 5895 5895 5895 5895 5895 5895
5855 5854 5853 5854 5854 5855 5856 5857 5858 5860 5861 5863 5865 5867 5869 5872 5873 5875 5877 5879 5882 5884 5885 5886 5887 5889 5890 5891 5892 5892 5892 5893 5893 5893 5894 5894 5894 5894 5894 5894 5894 5894 5894
5852 5851 5849 5850 5850 5851 5852 5852 5854 5856 5858 5860 5862 5864 5866 5869 5871 5873 5875 5877 5880 5882 5884 5885 5886 5887 5889 5890 5891 5891 5892 5892 5892 5893 5893 5893 5893 5893 5893 5894 5894 5894 5894
5849 5848 5846 5846 5846 5846 5847 5848 5850 5852 5853 5856 5858 5861 5863 5866 5868 5871 5873 5875 5877 5880 5882 5883 5885 5886 5888 5889 5890 5891 5891 5892 5892 5892 5892 5892 5893 5893 5893 5893 5893 5893 5893
5846 5844 5842 5842 5842 5842 5843 5844 5846 5848 5849 5852 5855 5858 5861 5863 5866 5868 5870 5873 5875 5877 5879 5881 5883 5884 5886 5888 5889 5890 5890 5891 5891 5892 5891 5891 5892 5892 5892 5892 5892 5892 5892
5843 5841 5839 5838 5838 5838 5839 5841 5843 5844 5847 5849 5852 5855 5857 5860 5863 5865 5868 5870 5873 5875 5877 5879 5881 5883 5884 5886 5887 5888 5889 5889 5890 5890 5891 5890 5891 5891 5891 5891 5891 5891 5891
5840 5837 5836 5835 5835 5835 5836 5838 5840 5842 5844 5846 5849 5851 5854 5857 5860 5862 5865 5868 5870 5872 5875 5876 5879 5880 5882 5884 5885 5886 5887 5887 5888 5889 5889 5889 5890 5890 5890 5890 5890 5890 5890
5836 5835 5834 5832 5832 5832 5834 5836 5837 5839 5841 5843 5846 5848 5851 5854 5856 5859 5862 5865 5867 5869 5872 5874 5876 5878 5880 5881 5883 5884 5885 5886 5886 5887 5887 5888 5888 5888 5888 5888 5888 5888 5888